Weather in Nacala

Mozambique     14°36′42″S   40°41′20″E
temp.,
°C
wind,
m/s
gust,
m/s
humid.,
%
clouds,
%
prec.,
mm/h
press.,
hPa
HPBL,
m
5 march, fri
fri523:00+25nw3790100 1.2 1008261
02:00+25nw4889100 1.2 1006398
05:00+24nw478899 0.3 1007342
08:00+25nw589199 2.9 1009464
11:00+28nw468595 2.3 1008550
14:00+27n358487 8.0 1006332
17:00+26nnw128699 2.2 1006120
20:00+25nnw228797 2.8 1009126
6 march, sat
sat623:00+24w359284 0.0 1009177
02:00+24w359291 0.0 1007181
05:00+24wsw379196 0.0 1008226
08:00+27wsw368475 0.1 1010450
11:00+29sw248012 6.0 1009616
14:00+27ne128454 13.9 100775
17:00+26nne2388100 4.4 1007116
20:00+25nw2390100 7.4 1010119
7 march, sun
sun723:00+24w3592100 0.1 1010157
02:00+24wsw379398 0.1 1008234
05:00+24sw4894100 0.0 1008329
08:00+27ssw478483 0.1 1010559
11:00+29ssw467641 2.5 10091088
14:00+30s356871 4.6 10071280
17:00+27s3685100 1.2 1007439
20:00+25ssw3793100 7.2 1009239
8 march, mon
mon823:00+24ssw4892100 3.9 1009256
02:00+23ssw4994100 4.4 1008293
05:00+23sw4896100 0.0 1008269
08:00+26sw4686100 0.0 1010458
11:00+30ssw3465100 0.0 10081224
14:00+30sse446464 0.0 10071225
17:00+26sse478532 1.0 1007381
20:00+24s489138 2.8 1010274
9 march, tue
tue923:00+23ssw369237 0.4 1010168
02:00+22sw369367 0.4 1009174
05:00+21sw369357 0.0 1011181
08:00+25sw358162 0.0 1012344
11:00+29ssw24590 0.0 10111253
14:00+30s356013 0.0 10091472
17:00+26sse467556 0.0 1009255
20:00+24sse237634 0.0 1012115